Location: Corralito
(10.2667°N, 66.9500°W)
Time: 20:26:19
(UTC+00:00)

Cosmos 1190 Rocket - Pass Details

Date: 12 December 2023
Orbit: 756 x 777 km, 74.1° (Epoch: 29 February)

Event Time Altitude Azimuth Distance (km) Brightness Sun altitude
Rises 23:34:19 0° 312° (NW) 3,230 7.6 -20.6°
Reaches altitude 10° 23:38:18 10° 283° (WNW) 2,299 7.2 -21.5°
Maximum altitude 23:40:13 12° 261° (W) 2,158 7.4 -22.0°
Drops below altitude 10° 23:42:08 10° 239° (WSW) 2,294 7.6 -22.4°
Sets 23:46:07 0° 208° (SSW) 3,214 8.0 -23.3°
